Погода в Лельчицах

Беларусь     51°47′15″N   28°19′29″E
темп.,
°C
ветер,
м/с
пор.,
м/с
влажн.,
%
обл.,
%
осадки,
мм/ч
давл.,
гПа
погр.,
м
19 мая, ср
ср1900:00+12с229588 0.4 100022
03:00+11сз269981 0.5 1000163
06:00+11сз3798100 0.8 1001490
09:00+11сз4898100 1.4 1002495
12:00+11сз5996100 0.9 1003630
15:00+11сз41094100 2.4 1005775
18:00+12сз61285100 0.3 1006916
21:00+10сз41387100 0.3 1007849
20 мая, чт
чт2000:00+10зсз51286100 0.0 1007618
03:00+9сз5138427 0.0 1007662
06:00+8зсз41192100 0.0 1008385
09:00+13сз5876100 0.0 1008912
12:00+17ссз685448 0.1 10081681
15:00+16сз4755100 0.1 10101833
18:00+16сз4657100 0.1 10111363
21:00+12зсз3680100 0.1 1012121
21 мая, пт
пт2100:00+10зсз2583100 0.0 101494
03:00+8ссз2892100 0.0 1015169
06:00+8сз2689100 0.0 1016180
09:00+13ссз2457100 0.0 1017528
12:00+16ссз234556 0.0 10171417
15:00+19ссз233880 0.0 10162375
18:00+15ссз256396 0.0 1017244
21:00+13всв1170100 0.0 101716
22 мая, сб
сб2200:00+11юв227725 0.0 101712
03:00+9ююв368123 0.0 1017107
06:00+8ююв267765 0.0 101797
09:00+16ю36538 0.0 1017513
12:00+20ююв353883 0.0 10161746
15:00+21ю463498 0.0 10142043
18:00+20ю4648100 0.0 10131262
21:00+15ю2274100 0.0 101330
23 мая, вс
вс2300:00+13ююв31087100 0.0 1012224
03:00+13ююв41184100 0.0 1010311
06:00+12ююв3690100 0.1 1010173
09:00+16юз51171100 0.1 10091117
12:00+16з5763100 0.1 10101346
15:00+16зсз4661100 0.1 10111169
18:00+18зсз355162 0.0 10111658
21:00+13з2274100 0.0 101238